owner,sensor,date,latitude,longitude,vertical_datum,wind_speed,wind_to_direction,wind_speed_of_gust,qcFlag 
TABS,ioos:station:wmo:42045:1,2010-09-01T00:00:00Z,26.2168,-96.4998,4.0,4.16367626,116.9961962,5.15,'11111222,11111222,11111222' 
TABS,ioos:station:wmo:42045:1,2010-09-01T00:30:00Z,26.2168,-96.4998,4.0,2.853769437,121.2395628,4.35,'11111222,11111222,11111222' 
TABS,ioos:station:wmo:42045:1,2010-09-01T01:00:00Z,26.2168,-96.4998,4.0,3.958282456,84.49064227,4.8,'11111222,11111222,11111222' 
TABS,ioos:station:wmo:42045:1,2010-09-01T01:30:00Z,26.2168,-96.4998,4.0,4.168896737,83.24961248,5.23,'11111222,11111222,11111222' 
TABS,ioos:station:wmo:42045:1,2010-09-01T02:00:00Z,26.2168,-96.4998,4.0,4.550571393,86.0933846,5.44,'11111222,11111222,11111222' 
TABS,ioos:station:wmo:42045:1,2010-09-01T02:30:00Z,26.2168,-96.4998,4.0,4.967896939,103.0295853,6.26,'11111222,11111222,11111222' 
TABS,ioos:station:wmo:42045:1,2010-09-01T03:00:00Z,26.2168,-96.4998,4.0,5.109099725,100.716497,5.8,'11111222,11111222,11111222' 
TABS,ioos:station:wmo:42045:1,2010-09-01T03:30:00Z,26.2168,-96.4998,4.0,5.312118222,98.77116369,6.43,'11111222,11111222,11111222' 
TABS,ioos:station:wmo:42045:1,2010-09-01T04:00:00Z,26.2168,-96.4998,4.0,5.441406068,111.0000838,6.24,'11111222,11111222,11111222' 
TABS,ioos:station:wmo:42045:1,2010-09-01T04:30:00Z,26.2168,-96.4998,4.0,5.476586528,111.0829501,6.27,'11111222,11111222,11111222' 
TABS,ioos:station:wmo:42045:1,2010-09-01T05:00:00Z,26.2168,-96.4998,4.0,5.651061847,108.1467668,6.7,'11111222,11111222,11111222' 
TABS,ioos:station:wmo:42045:1,2010-09-01T05:30:00Z,26.2168,-96.4998,4.0,6.076791917,123.4550569,7.07,'11111222,11111222,11111222' 
TABS,ioos:station:wmo:42045:1,2010-09-01T06:00:00Z,26.2168,-96.4998,4.0,5.275945413,124.6542833,6.13,'11111222,11111222,11111222' 
TABS,ioos:station:wmo:42045:1,2010-09-01T06:30:00Z,26.2168,-96.4998,4.0,5.150854298,118.6552014,5.8,'11111222,11111222,11111222' 
TABS,ioos:station:wmo:42045:1,2010-09-01T07:00:00Z,26.2168,-96.4998,4.0,4.813533006,118.0028243,5.77,'11111222,11111222,11111222' 
TABS,ioos:station:wmo:42045:1,2010-09-01T07:30:00Z,26.2168,-96.4998,4.0,4.855182798,129.9872137,5.71,'11111222,11111222,11111222' 
TABS,ioos:station:wmo:42045:1,2010-09-01T08:00:00Z,26.2168,-96.4998,4.0,4.313757063,129.2617002,5.3,'11111222,11111222,11111222' 
TABS,ioos:station:wmo:42045:1,2010-09-01T08:30:00Z,26.2168,-96.4998,4.0,4.196617686,125.8871814,5.02,'11111222,11111222,11111222' 
TABS,ioos:station:wmo:42045:1,2010-09-01T09:00:00Z,26.2168,-96.4998,4.0,3.556754138,135.1142234,4.47,'11111222,11111222,11111222' 
TABS,ioos:station:wmo:42045:1,2010-09-01T09:30:00Z,26.2168,-96.4998,4.0,2.372445995,164.8510342,2.94,'11111222,11111222,11111222' 
TABS,ioos:station:wmo:42045:1,2010-09-01T10:00:00Z,26.2168,-96.4998,4.0,2.935523803,155.4432401,3.53,'11111222,11111222,11111222' 
TABS,ioos:station:wmo:42045:1,2010-09-01T10:30:00Z,26.2168,-96.4998,4.0,2.077354086,146.3867179,3.26,'11111222,11111222,11111222' 
TABS,ioos:station:wmo:42045:1,2010-09-01T11:00:00Z,26.2168,-96.4998,4.0,2.973213749,132.2740111,3.65,'11111222,11111222,11111222' 
TABS,ioos:station:wmo:42045:1,2010-09-01T11:30:00Z,26.2168,-96.4998,4.0,3.041397705,130.8672547,3.69,'11111222,11111222,11111222' 
TABS,ioos:station:wmo:42045:1,2010-09-01T12:00:00Z,26.2168,-96.4998,4.0,2.985431292,109.1636219,3.55,'11111222,11111222,11111222' 
TABS,ioos:station:wmo:42045:1,2010-09-01T12:30:00Z,26.2168,-96.4998,4.0,2.319245567,124.9923593,3.12,'11111222,11111222,11111222' 
TABS,ioos:station:wmo:42045:1,2010-09-01T13:00:00Z,26.2168,-96.4998,4.0,2.64620483,124.5311659,3.15,'11111222,11111222,11111222' 
TABS,ioos:station:wmo:42045:1,2010-09-01T13:30:00Z,26.2168,-96.4998,4.0,2.859545418,104.3768053,3.56,'11111222,11111222,11111222' 
TABS,ioos:station:wmo:42045:1,2010-09-01T14:00:00Z,26.2168,-96.4998,4.0,2.993275798,87.31879777,3.78,'11111222,11111222,11111222' 
TABS,ioos:station:wmo:42045:1,2010-09-01T14:30:00Z,26.2168,-96.4998,4.0,3.123139446,87.43034407,4.68,'11111222,11111222,11111222' 
TABS,ioos:station:wmo:42045:1,2010-09-01T15:00:00Z,26.2168,-96.4998,4.0,2.737754554,113.0065984,3.3,'11111222,11111222,11111222' 
TABS,ioos:station:wmo:42045:1,2010-09-01T15:30:00Z,26.2168,-96.4998,4.0,3.230371496,110.2865493,4.1,'11111222,11111222,11111222' 
TABS,ioos:station:wmo:42045:1,2010-09-01T16:00:00Z,26.2168,-96.4998,4.0,2.999016505,111.5179643,3.51,'11111222,11111222,11111222' 
TABS,ioos:station:wmo:42045:1,2010-09-01T16:30:00Z,26.2168,-96.4998,4.0,3.004829446,107.2292807,3.8,'11111222,11111222,11111222' 
TABS,ioos:station:wmo:42045:1,2010-09-01T17:00:00Z,26.2168,-96.4998,4.0,2.474873734,98.13050426,3.05,'11111222,11111222,11111222' 
TABS,ioos:station:wmo:42045:1,2010-09-01T17:30:00Z,26.2168,-96.4998,4.0,2.910429522,89.01521468,3.42,'11111222,11111222,11111222' 
TABS,ioos:station:wmo:42045:1,2010-09-01T18:00:00Z,26.2168,-96.4998,4.0,2.543717752,78.20375402,3.23,'11111222,11111222,11111222' 
TABS,ioos:station:wmo:42045:1,2010-09-01T18:30:00Z,26.2168,-96.4998,4.0,2.619656466,73.36322102,3.46,'11111222,11111222,11111222' 
TABS,ioos:station:wmo:42045:1,2010-09-01T19:00:00Z,26.2168,-96.4998,4.0,2.775049549,69.54024257,3.31,'11111222,11111222,11111222' 
TABS,ioos:station:wmo:42045:1,2010-09-01T19:30:00Z,26.2168,-96.4998,4.0,3.06819165,75.46515799,4.11,'11111222,11111222,11111222' 
TABS,ioos:station:wmo:42045:1,2010-09-01T20:00:00Z,26.2168,-96.4998,4.0,3.187804887,77.31484149,4.09,'11111222,11111222,11111222' 
TABS,ioos:station:wmo:42045:1,2010-09-01T20:30:00Z,26.2168,-96.4998,4.0,2.904978485,86.64470819,4.16,'11111222,11111222,11111222' 
TABS,ioos:station:wmo:42045:1,2010-09-01T21:00:00Z,26.2168,-96.4998,4.0,3.170678161,94.70402462,3.98,'11111222,11111222,11111222' 
TABS,ioos:station:wmo:42045:1,2010-09-01T21:30:00Z,26.2168,-96.4998,4.0,3.05895407,83.61803347,3.81,'11111222,11111222,11111222' 
TABS,ioos:station:wmo:42045:1,2010-09-01T22:00:00Z,26.2168,-96.4998,4.0,3.146823796,72.42836139,3.8,'11111222,11111222,11111222' 
TABS,ioos:station:wmo:42045:1,2010-09-01T22:30:00Z,26.2168,-96.4998,4.0,3.183080269,59.40633578,3.94,'11111222,11111222,11111222' 
TABS,ioos:station:wmo:42045:1,2010-09-01T23:00:00Z,26.2168,-96.4998,4.0,4.418913894,64.24641731,5.35,'11111222,11111222,11111222' 
TABS,ioos:station:wmo:42045:1,2010-09-01T23:30:00Z,26.2168,-96.4998,4.0,4.873817805,74.65170131,5.77,'11111222,11111222,11111222' 
TABS,ioos:station:wmo:42045:1,2010-09-02T00:00:00Z,26.2168,-96.4998,4.0,5.35530578,72.9519518,6.49,'11111222,11111222,11111222' 
TABS,ioos:station:wmo:42045:1,2010-09-02T00:30:00Z,26.2168,-96.4998,4.0,5.459542105,75.68338306,6.23,'11111222,11111222,11111222' 
TABS,ioos:station:wmo:42045:1,2010-09-02T01:00:00Z,26.2168,-96.4998,4.0,5.474751136,84.54933759,6.37,'11111222,11111222,11111222' 
TABS,ioos:station:wmo:42045:1,2010-09-02T01:30:00Z,26.2168,-96.4998,4.0,5.730427558,90.7003329,6.88,'11111222,11111222,11111222' 
TABS,ioos:station:wmo:42045:1,2010-09-02T02:00:00Z,26.2168,-96.4998,4.0,5.690562362,90.80593052,7.2,'11111222,11111222,11111222' 
TABS,ioos:station:wmo:42045:1,2010-09-02T02:30:00Z,26.2168,-96.4998,4.0,5.083483058,94.17436053,6.2,'11111222,11111222,11111222' 
TABS,ioos:station:wmo:42045:1,2010-09-02T03:00:00Z,26.2168,-96.4998,4.0,5.31116748,97.13880119,6.89,'11111222,11111222,11111222' 
TABS,ioos:station:wmo:42045:1,2010-09-02T03:30:00Z,26.2168,-96.4998,4.0,5.48861549,98.38147559,6.39,'11111222,11111222,11111222' 
TABS,ioos:station:wmo:42045:1,2010-09-02T04:00:00Z,26.2168,-96.4998,4.0,6.872765091,97.10473999,7.93,'11111222,11111222,11111222' 
TABS,ioos:station:wmo:42045:1,2010-09-02T04:30:00Z,26.2168,-96.4998,4.0,5.718085344,97.43613147,6.88,'11111222,11111222,11111222' 
TABS,ioos:station:wmo:42045:1,2010-09-02T05:00:00Z,26.2168,-96.4998,4.0,5.763202235,103.2409099,7.16,'11111222,11111222,11111222' 
TABS,ioos:station:wmo:42045:1,2010-09-02T05:30:00Z,26.2168,-96.4998,4.0,6.059414163,96.5389964,7.26,'11111222,11111222,11111222' 
TABS,ioos:station:wmo:42045:1,2010-09-02T06:00:00Z,26.2168,-96.4998,4.0,6.299714279,107.745051,7.75,'11111222,11111222,11111222' 
TABS,ioos:station:wmo:42045:1,2010-09-02T06:30:00Z,26.2168,-96.4998,4.0,5.733942797,109.351726,7.17,'11111222,11111222,11111222' 
TABS,ioos:station:wmo:42045:1,2010-09-02T07:00:00Z,26.2168,-96.4998,4.0,5.678071856,106.9992463,9.25,'11111222,11111222,11111222' 
TABS,ioos:station:wmo:42045:1,2010-09-02T07:30:00Z,26.2168,-96.4998,4.0,5.604043183,117.2969986,6.55,'11111222,11111222,11111222' 
TABS,ioos:station:wmo:42045:1,2010-09-02T08:00:00Z,26.2168,-96.4998,4.0,5.03120264,116.8200556,6.14,'11111222,11111222,11111222' 
TABS,ioos:station:wmo:42045:1,2010-09-02T08:30:00Z,26.2168,-96.4998,4.0,4.253292842,113.8534328,5.13,'11111222,11111222,11111222' 
TABS,ioos:station:wmo:42045:1,2010-09-02T09:00:00Z,26.2168,-96.4998,4.0,4.39118435,134.7235273,5.49,'11111222,11111222,11111222' 
TABS,ioos:station:wmo:42045:1,2010-09-02T09:30:00Z,26.2168,-96.4998,4.0,4.310742395,127.9336025,5.67,'11111222,11111222,11111222' 
TABS,ioos:station:wmo:42045:1,2010-09-02T10:00:00Z,26.2168,-96.4998,4.0,4.470011186,122.0193161,5.91,'11111222,11111222,11111222' 
TABS,ioos:station:wmo:42045:1,2010-09-02T10:30:00Z,26.2168,-96.4998,4.0,4.792201999,126.3441602,5.69,'11111222,11111222,11111222' 
TABS,ioos:station:wmo:42045:1,2010-09-02T11:00:00Z,26.2168,-96.4998,4.0,4.410725564,132.151678,5.26,'11111222,11111222,11111222' 
TABS,ioos:station:wmo:42045:1,2010-09-02T11:30:00Z,26.2168,-96.4998,4.0,5.501754266,129.9125698,8.12,'11111222,11111222,11111222' 
TABS,ioos:station:wmo:42045:1,2010-09-02T12:00:00Z,26.2168,-96.4998,4.0,5.356052651,130.3811646,6.3,'11111222,11111222,11111222' 
TABS,ioos:station:wmo:42045:1,2010-09-02T12:30:00Z,26.2168,-96.4998,4.0,3.7323719,130.2186563,4.53,'11111222,11111222,11111222' 
TABS,ioos:station:wmo:42045:1,2010-09-02T13:00:00Z,26.2168,-96.4998,4.0,4.30850322,131.2362896,5.23,'11111222,11111222,11111222' 
TABS,ioos:station:wmo:42045:1,2010-09-02T13:30:00Z,26.2168,-96.4998,4.0,4.366886763,128.0249126,5.14,'11111222,11111222,11111222' 
TABS,ioos:station:wmo:42045:1,2010-09-02T14:00:00Z,26.2168,-96.4998,4.0,4.562192455,120.2748674,5.59,'11111222,11111222,11111222' 
TABS,ioos:station:wmo:42045:1,2010-09-02T14:30:00Z,26.2168,-96.4998,4.0,4.114365079,116.56541,5.33,'11111222,11111222,11111222' 
TABS,ioos:station:wmo:42045:1,2010-09-02T15:00:00Z,26.2168,-96.4998,4.0,3.848428251,120.964105,5.15,'11111222,11111222,11111222' 
TABS,ioos:station:wmo:42045:1,2010-09-02T15:30:00Z,26.2168,-96.4998,4.0,3.586655824,124.6651835,4.36,'11111222,11111222,11111222' 
TABS,ioos:station:wmo:42045:1,2010-09-02T16:00:00Z,26.2168,-96.4998,4.0,3.301030142,115.4786311,3.99,'11111222,11111222,11111222' 
TABS,ioos:station:wmo:42045:1,2010-09-02T16:30:00Z,26.2168,-96.4998,4.0,3.868074456,105.9050866,4.82,'11111222,11111222,11111222' 
TABS,ioos:station:wmo:42045:1,2010-09-02T17:00:00Z,26.2168,-96.4998,4.0,3.516475508,108.2292281,4.36,'11111222,11111222,11111222' 
TABS,ioos:station:wmo:42045:1,2010-09-02T17:30:00Z,26.2168,-96.4998,4.0,3.407535767,113.7067666,4.24,'11111222,11111222,11111222' 
TABS,ioos:station:wmo:42045:1,2010-09-02T18:00:00Z,26.2168,-96.4998,4.0,3.170015773,112.4394902,3.85,'11111222,11111222,11111222' 
TABS,ioos:station:wmo:42045:1,2010-09-02T18:30:00Z,26.2168,-96.4998,4.0,3.119246704,114.4291167,4.1,'11111222,11111222,11111222' 
TABS,ioos:station:wmo:42045:1,2010-09-02T19:00:00Z,26.2168,-96.4998,4.0,2.93955779,121.3652349,3.73,'11111222,11111222,11111222' 
TABS,ioos:station:wmo:42045:1,2010-09-02T19:30:00Z,26.2168,-96.4998,4.0,2.965687104,115.3557269,4.08,'11111222,11111222,11111222' 
TABS,ioos:station:wmo:42045:1,2010-09-02T20:00:00Z,26.2168,-96.4998,4.0,3.752465856,149.4031297,4.56,'11111222,11111222,11111222' 
TABS,ioos:station:wmo:42045:1,2010-09-02T20:30:00Z,26.2168,-96.4998,4.0,3.075093495,128.3982509,3.74,'11111222,11111222,11111222' 
TABS,ioos:station:wmo:42045:1,2010-09-02T21:00:00Z,26.2168,-96.4998,4.0,4.840960648,131.0637758,5.83,'11111222,11111222,11111222' 
TABS,ioos:station:wmo:42045:1,2010-09-02T21:30:00Z,26.2168,-96.4998,4.0,3.414000586,126.9037975,4.32,'11111222,11111222,11111222' 
TABS,ioos:station:wmo:42045:1,2010-09-02T22:00:00Z,26.2168,-96.4998,4.0,2.873830197,100.0199265,3.56,'11111222,11111222,11111222' 
TABS,ioos:station:wmo:42045:1,2010-09-02T22:30:00Z,26.2168,-96.4998,4.0,6.189539563,116.896595,7.66,'11111222,11111222,11111222' 
TABS,ioos:station:wmo:42045:1,2010-09-02T23:00:00Z,26.2168,-96.4998,4.0,4.103327918,113.253961,5.24,'11111222,11111222,11111222' 
TABS,ioos:station:wmo:42045:1,2010-09-02T23:30:00Z,26.2168,-96.4998,4.0,5.28050187,106.6164836,6.23,'11111222,11111222,11111222' 
TABS,ioos:station:wmo:42045:1,2010-09-03T00:00:00Z,26.2168,-96.4998,4.0,5.386770832,104.2946021,6.17,'11111222,11111222,11111222' 
TABS,ioos:station:wmo:42045:1,2010-09-03T00:30:00Z,26.2168,-96.4998,4.0,5.410813248,108.8706446,6.14,'11111222,11111222,11111222' 
TABS,ioos:station:wmo:42045:1,2010-09-03T01:00:00Z,26.2168,-96.4998,4.0,5.913797426,109.0480909,7.03,'11111222,11111222,11111222' 
TABS,ioos:station:wmo:42045:1,2010-09-03T01:30:00Z,26.2168,-96.4998,4.0,5.840856102,106.5117106,7.06,'11111222,11111222,11111222' 
TABS,ioos:station:wmo:42045:1,2010-09-03T02:00:00Z,26.2168,-96.4998,4.0,5.669964727,100.7752396,6.68,'11111222,11111222,11111222' 
TABS,ioos:station:wmo:42045:1,2010-09-03T02:30:00Z,26.2168,-96.4998,4.0,6.290071542,106.5338557,7.52,'11111222,11111222,11111222' 
TABS,ioos:station:wmo:42045:1,2010-09-03T03:00:00Z,26.2168,-96.4998,4.0,6.202426944,112.2649377,7.6,'11111222,11111222,11111222' 
TABS,ioos:station:wmo:42045:1,2010-09-03T03:30:00Z,26.2168,-96.4998,4.0,5.788713156,115.1488048,6.92,'11111222,11111222,11111222' 
TABS,ioos:station:wmo:42045:1,2010-09-03T04:00:00Z,26.2168,-96.4998,4.0,5.556473702,118.1334982,6.48,'11111222,11111222,11111222' 
TABS,ioos:station:wmo:42045:1,2010-09-03T04:30:00Z,26.2168,-96.4998,4.0,5.208992225,124.361574,6.31,'11111222,11111222,11111222' 
TABS,ioos:station:wmo:42045:1,2010-09-03T05:00:00Z,26.2168,-96.4998,4.0,4.584157502,126.3952793,5.68,'11111222,11111222,11111222' 
TABS,ioos:station:wmo:42045:1,2010-09-03T05:30:00Z,26.2168,-96.4998,4.0,4.706474264,118.1444528,5.6,'11111222,11111222,11111222' 
TABS,ioos:station:wmo:42045:1,2010-09-03T06:00:00Z,26.2168,-96.4998,4.0,5.167059125,118.053274,6.18,'11111222,11111222,11111222' 
TABS,ioos:station:wmo:42045:1,2010-09-03T06:30:00Z,26.2168,-96.4998,4.0,5.282518339,126.0675818,6.21,'11111222,11111222,11111222' 
TABS,ioos:station:wmo:42045:1,2010-09-03T07:00:00Z,26.2168,-96.4998,4.0,5.578861891,120.840813,6.49,'11111222,11111222,11111222' 
TABS,ioos:station:wmo:42045:1,2010-09-03T07:30:00Z,26.2168,-96.4998,4.0,4.59918471,131.2096884,5.4,'11111222,11111222,11111222' 
TABS,ioos:station:wmo:42045:1,2010-09-03T08:00:00Z,26.2168,-96.4998,4.0,4.262686946,130.5287254,5.44,'11111222,11111222,11111222' 
TABS,ioos:station:wmo:42045:1,2010-09-03T08:30:00Z,26.2168,-96.4998,4.0,4.430079006,129.8721366,5.42,'11111222,11111222,11111222' 
TABS,ioos:station:wmo:42045:1,2010-09-03T09:00:00Z,26.2168,-96.4998,4.0,4.204152709,139.1477157,5.3,'11111222,11111222,11111222' 
TABS,ioos:station:wmo:42045:1,2010-09-03T09:30:00Z,26.2168,-96.4998,4.0,3.790092347,135.0003157,4.39,'11111222,11111222,11111222' 
TABS,ioos:station:wmo:42045:1,2010-09-03T10:00:00Z,26.2168,-96.4998,4.0,3.784521106,131.1435237,4.39,'11111222,11111222,11111222' 
TABS,ioos:station:wmo:42045:1,2010-09-03T10:30:00Z,26.2168,-96.4998,4.0,4.754292797,95.79494152,5.58,'11111222,11111222,11111222' 
TABS,ioos:station:wmo:42045:1,2010-09-03T11:00:00Z,26.2168,-96.4998,4.0,2.898361606,94.35363123,3.64,'11111222,11111222,11111222' 
TABS,ioos:station:wmo:42045:1,2010-09-03T11:30:00Z,26.2168,-96.4998,4.0,3.328453094,106.5842106,4.34,'11111222,11111222,11111222' 
TABS,ioos:station:wmo:42045:1,2010-09-03T12:00:00Z,26.2168,-96.4998,4.0,3.067278924,101.0905238,3.91,'11111222,11111222,11111222' 
TABS,ioos:station:wmo:42045:1,2010-09-03T12:30:00Z,26.2168,-96.4998,4.0,3.431981935,107.115384,4.08,'11111222,11111222,11111222' 
TABS,ioos:station:wmo:42045:1,2010-09-03T13:00:00Z,26.2168,-96.4998,4.0,3.421958504,109.2825203,4.35,'11111222,11111222,11111222' 
TABS,ioos:station:wmo:42045:1,2010-09-03T13:30:00Z,26.2168,-96.4998,4.0,1.681457701,92.38635937,2.57,'11111222,11111222,11111222' 
TABS,ioos:station:wmo:42045:1,2010-09-03T14:00:00Z,26.2168,-96.4998,4.0,2.776940763,107.3913302,3.71,'11111222,11111222,11111222' 
TABS,ioos:station:wmo:42045:1,2010-09-03T14:30:00Z,26.2168,-96.4998,4.0,2.58001938,89.77750405,3.2,'11111222,11111222,11111222' 
TABS,ioos:station:wmo:42045:1,2010-09-03T15:00:00Z,26.2168,-96.4998,4.0,2.383547776,86.87309187,2.95,'11111222,11111222,11111222' 
TABS,ioos:station:wmo:42045:1,2010-09-03T15:30:00Z,26.2168,-96.4998,4.0,2.19531319,58.40924882,2.89,'11111222,11111222,11111222' 
TABS,ioos:station:wmo:42045:1,2010-09-03T16:00:00Z,26.2168,-96.4998,4.0,2.75436018,18.63203883,3.28,'11111222,11111222,11111222' 
TABS,ioos:station:wmo:42045:1,2010-09-03T16:30:00Z,26.2168,-96.4998,4.0,2.504595776,55.7385563,3.32,'11111222,11111222,11111222' 
TABS,ioos:station:wmo:42045:1,2010-09-03T17:00:00Z,26.2168,-96.4998,4.0,5.484022246,55.32432988,7.23,'11111222,11111222,11111222' 
TABS,ioos:station:wmo:42045:1,2010-09-03T17:30:00Z,26.2168,-96.4998,4.0,3.232336616,40.985518,4.26,'11111222,11111222,11111222' 
TABS,ioos:station:wmo:42045:1,2010-09-03T18:00:00Z,26.2168,-96.4998,4.0,3.292187722,56.01997707,4.14,'11111222,11111222,11111222' 
TABS,ioos:station:wmo:42045:1,2010-09-03T18:30:00Z,26.2168,-96.4998,4.0,4.332908954,61.00926129,5.33,'11111222,11111222,11111222' 
TABS,ioos:station:wmo:42045:1,2010-09-03T19:00:00Z,26.2168,-96.4998,4.0,4.580927854,59.57215453,5.49,'11111222,11111222,11111222' 
TABS,ioos:station:wmo:42045:1,2010-09-03T19:30:00Z,26.2168,-96.4998,4.0,4.723145139,67.07182923,5.89,'11111222,11111222,11111222' 
TABS,ioos:station:wmo:42045:1,2010-09-03T20:00:00Z,26.2168,-96.4998,4.0,4.557115316,63.54704453,5.31,'11111222,11111222,11111222' 
TABS,ioos:station:wmo:42045:1,2010-09-03T20:30:00Z,26.2168,-96.4998,4.0,4.736000422,53.15396345,5.97,'11111222,11111222,11111222' 
TABS,ioos:station:wmo:42045:1,2010-09-03T21:00:00Z,26.2168,-96.4998,4.0,4.548549219,60.78599072,5.74,'11111222,11111222,11111222' 
TABS,ioos:station:wmo:42045:1,2010-09-03T21:30:00Z,26.2168,-96.4998,4.0,7.467061001,44.89116996,8.79,'11111222,11111222,11111222' 
TABS,ioos:station:wmo:42045:1,2010-09-03T22:00:00Z,26.2168,-96.4998,4.0,5.616591493,58.91343117,6.77,'11111222,11111222,11111222' 
TABS,ioos:station:wmo:42045:1,2010-09-03T22:30:00Z,26.2168,-96.4998,4.0,6.810264312,44.10730094,8.02,'11111222,11111222,11111222' 
TABS,ioos:station:wmo:42045:1,2010-09-03T23:00:00Z,26.2168,-96.4998,4.0,5.795248053,55.04813805,7.48,'11111222,11111222,11111222' 
TABS,ioos:station:wmo:42045:1,2010-09-03T23:30:00Z,26.2168,-96.4998,4.0,5.608752089,49.26541738,6.68,'11111222,11111222,11111222' 
TABS,ioos:station:wmo:42045:1,2010-09-04T00:00:00Z,26.2168,-96.4998,4.0,5.925571702,44.86294079,6.46,'11111222,11111222,11111222' 
TABS,ioos:station:wmo:42045:1,2010-09-04T00:30:00Z,26.2168,-96.4998,4.0,6.985842827,64.02146472,7.95,'11111222,11111222,11111222' 
TABS,ioos:station:wmo:42045:1,2010-09-04T01:00:00Z,26.2168,-96.4998,4.0,4.946524032,54.96019484,6.19,'11111222,11111222,11111222' 
TABS,ioos:station:wmo:42045:1,2010-09-04T01:30:00Z,26.2168,-96.4998,4.0,8.709586672,21.2025586,9.61,'11111222,11111222,11111222' 
TABS,ioos:station:wmo:42045:1,2010-09-04T02:00:00Z,26.2168,-96.4998,4.0,4.642262379,18.20051817,5.58,'11111222,11111222,11111222' 
TABS,ioos:station:wmo:42045:1,2010-09-04T02:30:00Z,26.2168,-96.4998,4.0,6.326365465,79.98637631,7.79,'11111222,11111222,11111222' 
TABS,ioos:station:wmo:42045:1,2010-09-04T03:00:00Z,26.2168,-96.4998,4.0,4.046195744,82.33009394,5.34,'11111222,11111222,11111222' 
TABS,ioos:station:wmo:42045:1,2010-09-04T03:30:00Z,26.2168,-96.4998,4.0,2.822428033,43.42050511,3.41,'11111222,11111222,11111222' 
TABS,ioos:station:wmo:42045:1,2010-09-04T04:00:00Z,26.2168,-96.4998,4.0,5.186231773,71.21531401,6.14,'11111222,11111222,11111222' 
TABS,ioos:station:wmo:42045:1,2010-09-04T04:30:00Z,26.2168,-96.4998,4.0,5.120820247,73.9005308,5.91,'11111222,11111222,11111222' 
TABS,ioos:station:wmo:42045:1,2010-09-04T05:00:00Z,26.2168,-96.4998,4.0,5.637242234,66.25386135,6.83,'11111222,11111222,11111222' 
TABS,ioos:station:wmo:42045:1,2010-09-04T05:30:00Z,26.2168,-96.4998,4.0,4.746925321,67.32405908,5.7,'11111222,11111222,11111222' 
TABS,ioos:station:wmo:42045:1,2010-09-04T06:00:00Z,26.2168,-96.4998,4.0,4.763664556,74.03769923,5.93,'11111222,11111222,11111222' 
TABS,ioos:station:wmo:42045:1,2010-09-04T06:30:00Z,26.2168,-96.4998,4.0,4.86466854,77.53467539,6.29,'11111222,11111222,11111222' 
TABS,ioos:station:wmo:42045:1,2010-09-04T07:00:00Z,26.2168,-96.4998,4.0,5.07505665,80.81568131,6.04,'11111222,11111222,11111222' 
TABS,ioos:station:wmo:42045:1,2010-09-04T07:30:00Z,26.2168,-96.4998,4.0,4.537488292,80.86942395,5.75,'11111222,11111222,11111222' 
TABS,ioos:station:wmo:42045:1,2010-09-04T08:00:00Z,26.2168,-96.4998,4.0,4.122256664,74.37878413,5.2,'11111222,11111222,11111222' 
TABS,ioos:station:wmo:42045:1,2010-09-04T08:30:00Z,26.2168,-96.4998,4.0,4.688816482,75.04458274,5.49,'11111222,11111222,11111222' 
TABS,ioos:station:wmo:42045:1,2010-09-04T09:00:00Z,26.2168,-96.4998,4.0,5.333554162,94.08602814,6.8,'11111222,11111222,11111222' 
TABS,ioos:station:wmo:42045:1,2010-09-04T09:30:00Z,26.2168,-96.4998,4.0,4.277662913,73.42866667,5.18,'11111222,11111222,11111222' 
TABS,ioos:station:wmo:42045:1,2010-09-04T10:00:00Z,26.2168,-96.4998,4.0,4.436056808,65.91911912,5.5,'11111222,11111222,11111222' 
TABS,ioos:station:wmo:42045:1,2010-09-04T10:30:00Z,26.2168,-96.4998,4.0,4.497210246,73.86171902,5.67,'11111222,11111222,11111222' 
TABS,ioos:station:wmo:42045:1,2010-09-04T11:00:00Z,26.2168,-96.4998,4.0,4.315101389,76.73628135,5.56,'11111222,11111222,11111222' 
TABS,ioos:station:wmo:42045:1,2010-09-04T11:30:00Z,26.2168,-96.4998,4.0,4.428509907,74.14307841,5.38,'11111222,11111222,11111222' 
TABS,ioos:station:wmo:42045:1,2010-09-04T12:00:00Z,26.2168,-96.4998,4.0,5.192475325,64.07611652,6.29,'11111222,11111222,11111222' 
TABS,ioos:station:wmo:42045:1,2010-09-04T12:30:00Z,26.2168,-96.4998,4.0,4.78591684,57.80392044,5.83,'11111222,11111222,11111222' 
TABS,ioos:station:wmo:42045:1,2010-09-04T13:00:00Z,26.2168,-96.4998,4.0,4.732060862,55.50360863,5.75,'11111222,11111222,11111222' 
TABS,ioos:station:wmo:42045:1,2010-09-04T13:30:00Z,26.2168,-96.4998,4.0,5.427605365,54.52334188,6.26,'11111222,11111222,11111222' 
TABS,ioos:station:wmo:42045:1,2010-09-04T14:00:00Z,26.2168,-96.4998,4.0,5.84705909,71.65763539,6.98,'11111222,11111222,11111222' 
TABS,ioos:station:wmo:42045:1,2010-09-04T14:30:00Z,26.2168,-96.4998,4.0,5.637960624,48.30706075,7.28,'11111222,11111222,11111222' 
TABS,ioos:station:wmo:42045:1,2010-09-04T15:00:00Z,26.2168,-96.4998,4.0,6.108109364,48.71668393,7.18,'11111222,11111222,11111222' 
TABS,ioos:station:wmo:42045:1,2010-09-04T15:30:00Z,26.2168,-96.4998,4.0,6.58708585,56.45433692,7.63,'11111222,11111222,11111222' 
TABS,ioos:station:wmo:42045:1,2010-09-04T16:00:00Z,26.2168,-96.4998,4.0,8.629264163,55.48087795,11.63,'11111222,11111222,11111222' 
TABS,ioos:station:wmo:42045:1,2010-09-04T16:30:00Z,26.2168,-96.4998,4.0,6.883385795,27.42098506,8.18,'11111222,11111222,11111222' 
TABS,ioos:station:wmo:42045:1,2010-09-04T17:00:00Z,26.2168,-96.4998,4.0,5.252361374,50.79469164,6.28,'11111222,11111222,11111222' 
TABS,ioos:station:wmo:42045:1,2010-09-04T17:30:00Z,26.2168,-96.4998,4.0,6.693705999,59.37352872,8.06,'11111222,11111222,11111222' 
TABS,ioos:station:wmo:42045:1,2010-09-04T18:00:00Z,26.2168,-96.4998,4.0,6.218054358,53.36934278,7.46,'11111222,11111222,11111222' 
TABS,ioos:station:wmo:42045:1,2010-09-04T18:30:00Z,26.2168,-96.4998,4.0,5.901881056,61.56738721,7.34,'11111222,11111222,11111222' 